Change the Weather History Date:

Monday, June 17, 2013

  Actual Average (KIRK) Record (KIRK)
Temperature  
Mean Temperature 77 °F 71 °F  
Max Temperature 87 °F 82 °F 97 °F (1936)
Min Temperature 68 °F 61 °F 43 °F (1961)
Degree Days  
Heating Degree Days 0 0  
Month to date heating degree days 12  
Since 1 June heating degree days 12  
Since 1 July heating degree days 5852  
Cooling Degree Days 12 7  
Month to date cooling degree days 89  
Year to date cooling degree days 151  
Since 1 June cooling degree days 89  
Growing Degree Days 27 (Base 50)    
Moisture  
Dew Point 67 °F    
Average Humidity 78    
Maximum Humidity 93    
Minimum Humidity 48    
Precipitation  
Precipitation 0.00 in 0.16 in 3.10 in (1928)
Month to date precipitation 3.06  
Year to date precipitation 17.21  
Sea Level Pressure  
Sea Level Pressure 29.93 in    
Wind  
Wind Speed 2 mph (NE)    
Max Wind Speed 6 mph    
Max Gust Speed -    
T = Trace of Precipitation, MM = Missing Value Source: NWS Daily Summary

Daily Weather History Graph

Daily Weather History Graph

Search for Another Location

Airport or City:

Trip Planner

Search our weather history database for the weather conditions in past years. The results will help you decide how hot, cold, wet, or windy it might be!

Date:

Astronomy

Jun. 17, 2013 Rise Set
Actual Time 5:45 AM CDT 8:45 PM CDT
Civil Twilight 5:12 AM CDT 9:17 PM CDT
Nautical Twilight 4:31 AM CDT 9:59 PM CDT
Astronomical Twilight 3:43 AM CDT 10:47 PM CDT
Moon 2:25 PM CDT (6/17) 1:21 AM CDT (6/17)
Length of Visible Light 16h 04m
Length of Day
14h 59m
First Quarter, 60% of the Moon is Illuminated
Jun 17
First Quarter
Jun 23
Full
Jun 29
Last Quarter
Jul 8
New
Jul 15
First Quarter

Hourly Weather History & Observations

Time (CDT) Temp. Heat Index Dew Point Humidity Pressure Visibility Wind Dir Wind Speed Gust Speed Precip Events Conditions
12:52 AM 69.1 °F - 66.9 °F 93% 29.94 in - NNW 3.5 mph - N/A   Unknown
1:52 AM 68.0 °F - 66.0 °F 93% 29.93 in - Calm Calm - N/A   Unknown
2:52 AM 71.1 °F - 66.9 °F 87% 29.91 in - Calm Calm - N/A   Unknown
3:52 AM 69.1 °F - 66.0 °F 90% 29.91 in - Calm Calm - N/A   Unknown
4:52 AM 68.0 °F - 66.0 °F 93% 29.91 in - Calm Calm - N/A   Unknown
5:52 AM 69.1 °F - 66.0 °F 90% 29.93 in - Calm Calm - N/A   Unknown
6:52 AM 69.1 °F - 66.0 °F 90% 29.93 in - Calm Calm - N/A   Unknown
7:52 AM 70.0 °F - 66.9 °F 90% 29.93 in - NNE 3.5 mph - N/A   Unknown
8:52 AM 72.0 °F - 68.0 °F 87% 29.94 in - North 3.5 mph - N/A   Unknown
9:52 AM 75.0 °F - 69.1 °F 82% 29.95 in - Calm Calm - N/A   Unknown
10:52 AM 77.0 °F - 70.0 °F 79% 29.96 in - Calm Calm - N/A   Unknown
11:52 AM 80.1 °F 83.2 °F 70.0 °F 71% 29.97 in - NNE 4.6 mph - N/A   Unknown
12:52 PM 80.1 °F 82.9 °F 69.1 °F 69% 29.97 in - East 3.5 mph - N/A   Unknown
1:52 PM 82.0 °F 85.5 °F 69.1 °F 65% 29.95 in - ENE 3.5 mph - N/A   Unknown
2:52 PM 82.9 °F 85.8 °F 68.0 °F 60% 29.94 in - NE 5.8 mph - N/A   Unknown
3:52 PM 82.9 °F 86.5 °F 69.1 °F 63% 29.94 in - Variable 4.6 mph - N/A   Unknown
4:52 PM 84.0 °F 86.5 °F 66.9 °F 56% 29.92 in - Variable 3.5 mph - N/A   Unknown
5:52 PM 86.0 °F 87.3 °F 64.0 °F 48% 29.90 in - Calm Calm - N/A   Unknown
6:52 PM 86.0 °F 87.6 °F 64.9 °F 49% 29.90 in - Calm Calm - N/A   Unknown
7:52 PM 82.0 °F 84.5 °F 66.9 °F 60% 29.91 in - Calm Calm - N/A   Unknown
8:52 PM 73.9 °F - 69.1 °F 85% 29.92 in - Calm Calm - N/A   Unknown
9:52 PM 71.1 °F - 66.9 °F 87% 29.92 in - Calm Calm - N/A   Unknown
10:52 PM 69.1 °F - 66.0 °F 90% 29.94 in - Calm Calm - N/A   Unknown
11:52 PM 69.1 °F - 66.0 °F 90% 29.94 in - Calm Calm - N/A   Unknown